User: anonymous   Login
Location: Unspecified
(0.0000°N, 0.0000°E)
Time: 04:08:31
(UTC+00:00)
Language:

Aussat K1 - Orbit

View from above orbital plane
View from above orbital plane
View from above satellite
View from above satellite

Ground track
Ground track

The orbit data is extracted from the following two-line orbital elements,

1 15993U 85076B   18170.50460764 -.00000236 +00000-0 +00000-0 0  9994
2 15993 015.3001 003.4498 0005998 311.3997 233.7140 00.99757692090464
Epoch (UTC): 19 June 2018 12:06:38
Eccentricity: 0.0005998
inclination: 15.3001°
perigee height: 35905 km
apogee height: 35956 km
right ascension of ascending node: 3.4498°
argument of perigee: 311.3997°
revolutions per day: 0.99757692
mean anomaly at epoch: 233.7140°
orbit number at epoch: 9046

The dashed part of the orbit path shows where the satellite is in the earth's shadow,  

DLR